CW6382 Weather Reports


Display with metric or nautical units.
time (UTC)temp
F
wind
direction
speed
MPH
gust
MPH
rain 1hr
in
rain 24hr
in
rain mn
in
humidity
%
barometer
mb
20260505124528 44 22 2.0 8.0 0.08 0.08 0.08 87 1015.9
20260505123017 44 258 0.0 7.0 0.07 0.07 0.07 84 1017.3
20260505121522 45 335 2.0 8.0 0.06 0.06 0.06 84 1017.5
20260505120026 45 269 5.0 12.0 0.05 0.05 0.05 81 1017.1
20260505114530 48 272 6.0 20.0 0.00 0.00 0.00 75 1017.2
20260505113024 50 291 5.0 18.0 0.00 0.00 0.00 68 1017.2
20260505111533 50 276 4.0 12.0 0.00 0.00 0.00 73 1016.9
20260505101520 50 275 1.0 4.0 0.00 0.00 0.00 73 1016.8
20260505100039 50 283 2.0 7.0 0.00 0.00 0.00 73 1016.9
20260505094517 50 276 2.0 8.0 0.00 0.00 0.00 73 1017.0
20260505093025 50 298 2.0 5.0 0.00 0.00 0.00 73 1016.6
20260505091538 49 357 1.0 4.0 0.00 0.00 0.00 74 1017.1
20260505090031 48 33 1.0 2.0 0.00 0.00 0.00 77 1016.9
20260505084533 47 21 1.0 3.0 0.00 0.00 0.00 80 1016.9
20260505083039 45 23 0.0 1.0 0.00 0.00 0.00 82 1017.2
20260505081529 46 234 0.0 0.0 0.00 0.00 0.00 78 1017.6
20260505080007 47 234 0.0 0.0 0.00 0.00 0.00 75 1017.7
20260505074514 49 235 0.0 2.0 0.00 0.00 0.00 73 1018.0
20260505071522 50 335 0.0 4.0 0.00 0.00 0.00 70 1017.8
20260505070026 49 115 0.0 1.0 0.00 0.00 0.00 71 1017.7
20260505064504 51 228 0.0 1.0 0.00 0.00 0.00 68 1017.9
20260505063015 51 333 2.0 6.0 0.00 0.00 0.00 67 1017.7
20260505061530 51 320 2.0 10.0 0.00 0.00 0.00 66 1017.3
20260505060004 51 328 2.0 5.0 0.00 0.00 0.00 65 1017.1
20260505054522 51 332 1.0 6.0 0.00 0.00 0.00 64 1017.5
20260505053024 52 23 2.0 8.0 0.00 0.00 0.00 64 1018.1
20260505051510 52 358 2.0 4.0 0.00 0.00 0.00 63 1018.4
20260505041523 53 290 5.0 13.0 0.00 0.00 0.00 61 1018.2
20260505040005 53 304 3.0 12.0 0.00 0.00 0.00 59 1018.5
20260505034518 54 308 3.0 13.0 0.00 0.00 0.00 57 1018.6
20260505033033 54 302 6.0 13.0 0.00 0.00 0.00 55 1018.6
20260505031510 55 342 8.0 13.0 0.00 0.00 0.00 53 1018.7
20260505030022 56 316 7.0 21.0 0.00 0.00 0.00 47 1018.1
20260505024548 57 338 8.0 14.0 0.00 0.00 0.00 45 1017.9
20260505023015 58 250 7.0 21.0 0.00 0.00 0.00 42 1017.9
20260505021541 61 290 8.0 15.0 0.00 0.00 0.00 34 1017.7
20260505020027 62 263 5.0 15.0 0.00 0.00 0.00 30 1017.3
20260505014522 62 266 5.0 17.0 0.00 0.00 0.00 29 1017.1
20260505013025 63 267 5.0 12.0 0.00 0.00 0.00 28 1017.0
20260505011511 64 263 5.0 12.0 0.00 0.00 0.00 26 1016.7
20260505010021 65 288 3.0 15.0 0.00 0.00 0.00 25 1016.5
20260505004536 66 315 6.0 15.0 0.00 0.00 0.00 24 1016.5
20260505003013 67 286 6.0 16.0 0.00 0.00 0.00 22 1016.2
20260505001524 68 254 7.0 13.0 0.00 0.00 0.00 20 1016.1
20260505000025 68 253 10.0 16.0 0.00 0.00 0.00 20 1016.1
20260504234517 68 238 8.0 16.0 0.00 0.00 0.00 19 1016.5
20260504233027 68 279 7.0 19.0 0.00 0.00 0.00 19 1016.5
20260504224525 71 259 9.0 17.0 0.00 0.00 0.00 19 1016.7
20260504223011 71 285 6.0 21.0 0.00 0.00 0.00 20 1016.7
20260504221532 70 257 5.0 19.0 0.00 0.00 0.00 20 1016.8
20260504220026 70 312 6.0 17.0 0.00 0.00 0.00 19 1016.8
20260504214515 70 250 6.0 16.0 0.00 0.00 0.00 21 1017.1
20260504213024 70 252 6.0 18.0 0.00 0.00 0.00 21 1017.2
20260504211529 69 255 5.0 15.0 0.00 0.00 0.00 22 1017.4
20260504210007 69 229 6.0 19.0 0.00 0.00 0.00 21 1017.6
20260504204514 70 283 9.0 17.0 0.00 0.00 0.00 20 1017.9
20260504203007 69 259 11.0 17.0 0.00 0.00 0.00 20 1018.1
20260504201508 69 281 8.0 16.0 0.00 0.00 0.00 20 1018.3
20260504200008 68 236 9.0 19.0 0.00 0.00 0.00 21 1018.3
20260504194508 69 233 9.0 17.0 0.00 0.00 0.00 20 1018.3
20260504193010 69 211 6.0 13.0 0.00 0.00 0.00 22 1018.3
20260504191512 69 270 6.0 13.0 0.00 0.00 0.00 21 1018.4
20260504190008 69 322 3.0 18.0 0.00 0.00 0.00 21 1018.6
20260504184508 69 288 6.0 14.0 0.00 0.00 0.00 22 1018.9
20260504183009 67 282 12.0 20.0 0.00 0.00 0.00 22 1018.9
20260504181508 67 282 6.0 13.0 0.00 0.00 0.00 25 1018.8
20260504180012 66 248 5.0 11.0 0.00 0.00 0.00 27 1019.1
20260504174510 66 245 7.0 16.0 0.00 0.00 0.00 27 1019.0
20260504173011 65 314 6.0 12.0 0.00 0.00 0.00 29 1019.3
20260504171512 64 237 4.0 12.0 0.00 0.00 0.00 31 1019.5